N5TDX Weather Reports


time (UTC)temp
C
wind
direction
speed
KPH
gust
KPH
rain 1hr
cm
rain 24hr
cm
rain mn
cm
humidity
%
barometer
mb
20260509213103 32 26 3.2 3.2 0.00 0.00 0.00 34 1005.2
20260509212601 33 90 3.2 4.8 0.00 0.00 0.00 33 1005.1
20260509212058 32 222 1.6 3.2 0.00 0.00 0.00 34 1005.3
20260509211554 33 272 0.0 3.2 0.00 0.00 0.00 34 1005.5
20260509211050 33 183 1.6 1.6 0.00 0.00 0.00 32 1005.3
20260509210547 33 59 0.0 3.2 0.00 0.00 0.00 33 1005.5
20260509210044 33 50 1.6 1.6 0.00 0.00 0.00 31 1005.7
20260509205544 33 343 3.2 3.2 0.00 0.00 0.00 28 1005.6
20260509205039 33 185 1.6 3.2 0.00 0.00 0.00 27 1005.7
20260509204536 33 64 1.6 3.2 0.00 0.00 0.00 28 1006.0
20260509204032 33 41 0.0 1.6 0.00 0.00 0.00 28 1006.0
20260509203528 33 294 1.6 3.2 0.00 0.00 0.00 25 1005.9
20260509203027 33 47 1.6 3.2 0.00 0.00 0.00 22 1005.9
20260509202521 33 329 0.0 3.2 0.00 0.00 0.00 23 1006.2
20260509202017 32 55 1.6 3.2 0.00 0.00 0.00 26 1006.3
20260509201512 32 62 6.4 9.7 0.00 0.00 0.00 30 1006.4
20260509201010 32 57 1.6 6.4 0.00 0.00 0.00 26 1006.4
20260509200510 32 309 0.0 9.7 0.00 0.00 0.00 30 1006.4
20260509200007 32 28 0.0 6.4 0.00 0.00 0.00 34 1006.6
20260509195502 32 328 1.6 4.8 0.00 0.00 0.00 35 1006.4
20260509195001 32 347 1.6 6.4 0.00 0.00 0.00 36 1006.7
20260509194457 32 112 4.8 6.4 0.00 0.00 0.00 40 1006.6
20260509193955 32 84 4.8 6.4 0.00 0.00 0.00 39 1006.6
20260509193454 32 72 3.2 6.4 0.00 0.00 0.00 38 1006.6
20260509192951 32 63 6.4 9.7 0.00 0.00 0.00 38 1006.8
20260509192448 33 25 1.6 3.2 0.00 0.00 0.00 36 1006.5
20260509191942 32 46 3.2 6.4 0.00 0.00 0.00 40 1006.7
20260509191438 32 96 3.2 9.7 0.00 0.00 0.00 40 1006.6
20260509190934 32 315 0.0 1.6 0.00 0.00 0.00 41 1006.7
20260509190431 32 30 1.6 6.4 0.00 0.00 0.00 43 1006.9
20260509185929 32 61 1.6 4.8 0.00 0.00 0.00 45 1006.9
20260509185426 31 339 1.6 4.8 0.00 0.00 0.00 42 1006.9
20260509184923 31 17 3.2 6.4 0.00 0.00 0.00 43 1006.9
20260509184420 31 56 3.2 6.4 0.00 0.00 0.00 44 1007.2
20260509183917 31 65 3.2 11.3 0.00 0.00 0.00 44 1006.9
20260509183411 32 83 0.0 4.8 0.00 0.00 0.00 44 1007.1
20260509182908 31 49 0.0 1.6 0.00 0.00 0.00 46 1007.2
20260509182404 32 76 4.8 11.3 0.00 0.00 0.00 41 1007.3
20260509181902 33 33 0.0 1.6 0.00 0.00 0.00 37 1007.2
20260509181359 33 71 1.6 3.2 0.00 0.00 0.00 39 1007.2
20260509180857 32 270 0.0 3.2 0.00 0.00 0.00 40 1007.4
20260509180352 32 202 4.8 6.4 0.00 0.00 0.00 38 1007.4
20260509175849 33 204 0.0 3.2 0.00 0.00 0.00 38 1007.5
20260509175345 33 27 0.0 1.6 0.00 0.00 0.00 41 1007.5
20260509174841 32 16 0.0 1.6 0.00 0.00 0.00 41 1007.5
20260509174338 32 6 0.0 1.6 0.00 0.00 0.00 43 1007.7
20260509173834 32 350 0.0 1.6 0.00 0.00 0.00 42 1007.6
20260509173329 32 38 0.0 1.6 0.00 0.00 0.00 43 1007.6
20260509172825 32 196 0.0 4.8 0.00 0.00 0.00 42 1007.7
20260509172322 31 327 1.6 1.6 0.00 0.00 0.00 44 1007.8
20260509171818 31 13 0.0 3.2 0.00 0.00 0.00 43 1007.6
20260509171314 31 53 1.6 1.6 0.00 0.00 0.00 43 1008.0
20260509170811 31 60 1.6 3.2 0.00 0.00 0.00 43 1007.7
20260509170306 31 341 1.6 4.8 0.00 0.00 0.00 43 1007.7
20260509165806 31 1 1.6 4.8 0.00 0.00 0.00 44 1008.0
20260509165301 30 345 1.6 1.6 0.00 0.00 0.00 44 1007.9
20260509164757 30 180 1.6 3.2 0.00 0.00 0.00 44 1007.8
20260509164253 30 292 1.6 3.2 0.00 0.00 0.00 45 1008.2
20260509163750 30 251 1.6 1.6 0.00 0.00 0.00 46 1007.9
20260509163247 30 57 1.6 4.8 0.00 0.00 0.00 47 1008.1
20260509162745 30 323 1.6 3.2 0.00 0.00 0.00 47 1008.0
20260509162239 30 77 1.6 4.8 0.00 0.00 0.00 47 1008.1
20260509161735 30 335 3.2 3.2 0.00 0.00 0.00 48 1008.3
20260509161232 30 311 3.2 3.2 0.00 0.00 0.00 48 1008.1
20260509160727 29 299 0.0 1.6 0.00 0.00 0.00 49 1008.3
20260509160224 29 29 0.0 1.6 0.00 0.00 0.00 53 1008.2
20260509155718 28 356 0.0 1.6 0.00 0.00 0.00 51 1008.1
20260509155216 28 4 1.6 3.2 0.00 0.00 0.00 52 1008.3
20260509154711 28 330 1.6 1.6 0.00 0.00 0.00 54 1008.0
20260509154209 28 314 1.6 1.6 0.00 0.00 0.00 54 1007.9
20260509153706 28 316 1.6 1.6 0.00 0.00 0.00 54 1007.9
20260509153202 27 19 0.0 1.6 0.00 0.00 0.00 55 1007.9
20260509152658 27 3 0.0 1.6 0.00 0.00 0.00 56 1008.0
20260509152155 27 72 1.6 3.2 0.00 0.00 0.00 55 1008.0
20260509151651 27 332 1.6 3.2 0.00 0.00 0.00 56 1007.9
20260509151149 27 343 1.6 3.2 0.00 0.00 0.00 56 1007.9
20260509150647 26 46 1.6 3.2 0.00 0.00 0.00 57 1007.9
20260509150145 26 41 1.6 3.2 0.00 0.00 0.00 60 1007.9
20260509145641 26 50 3.2 3.2 0.00 0.00 0.00 59 1008.2
20260509145136 26 335 1.6 3.2 0.00 0.00 0.00 60 1008.0
20260509144633 25 353 0.0 1.6 0.00 0.00 0.00 60 1008.0
20260509144130 25 26 0.0 3.2 0.00 0.00 0.00 59 1008.0
20260509143627 25 66 1.6 6.4 0.00 0.00 0.00 60 1008.1
20260509143125 25 58 0.0 1.6 0.00 0.00 0.00 63 1008.2
20260509142620 25 51 0.0 1.6 0.00 0.00 0.00 62 1008.0
20260509142117 25 17 1.6 3.2 0.00 0.00 0.00 62 1008.1
20260509141612 25 14 0.0 1.6 0.00 0.00 0.00 66 1008.2
20260509141109 24 18 0.0 1.6 0.00 0.00 0.00 68 1008.1
20260509140606 23 359 0.0 3.2 0.00 0.00 0.00 72 1008.2
20260509140104 22 324 1.6 1.6 0.00 0.00 0.00 73 1008.3
20260509135601 22 1 0.0 1.6 0.00 0.00 0.00 75 1008.4
20260509135059 22 342 0.0 1.6 0.00 0.00 0.00 75 1008.2
20260509134555 22 308 1.6 3.2 0.00 0.00 0.00 74 1008.5
20260509134053 22 312 0.0 1.6 0.00 0.00 0.00 75 1008.2
20260509133550 22 343 1.6 3.2 0.00 0.00 0.00 75 1008.2
20260509133047 21 336 1.6 1.6 0.00 0.00 0.00 75 1008.1
20260509132546 21 316 1.6 3.2 0.00 0.00 0.00 75 1008.1
20260509132044 21 313 0.0 3.2 0.00 0.00 0.00 76 1008.1
20260509131539 21 327 1.6 3.2 0.00 0.00 0.00 76 1008.2
20260509131036 21 303 1.6 3.2 0.00 0.00 0.00 75 1007.8
20260509130532 21 70 0.0 1.6 0.00 0.00 0.00 76 1007.9
20260509130029 21 49 0.0 1.6 0.00 0.00 0.00 76 1008.2
20260509125525 20 71 0.0 0.0 0.00 0.00 0.00 76 1008.0
20260509125022 20 190 0.0 1.6 0.00 0.00 0.00 76 1007.9
20260509124519 20 336 0.0 0.0 0.00 0.00 0.00 76 1008.0
20260509124016 20 44 0.0 1.6 0.00 0.00 0.00 76 1008.1
20260509123514 20 229 0.0 3.2 0.00 0.00 0.00 76 1008.0
20260509123010 20 240 1.6 3.2 0.00 0.00 0.00 75 1007.7
20260509122506 20 174 0.0 1.6 0.00 0.00 0.00 75 1007.8
20260509122003 20 64 0.0 1.6 0.00 0.00 0.00 76 1007.6
20260509121500 20 332 0.0 1.6 0.00 0.00 0.00 76 1007.5
20260509120958 20 115 0.0 1.6 0.00 0.00 0.00 77 1007.6
20260509120455 20 36 0.0 3.2 0.00 0.00 0.00 78 1007.4
20260509115954 20 18 0.0 1.6 0.00 0.00 0.00 78 1007.3
20260509115450 20 357 1.6 3.2 0.00 0.00 0.00 79 1007.4
20260509114948 20 58 1.6 3.2 0.00 0.00 0.00 79 1007.6
20260509114446 20 346 0.0 1.6 0.00 0.00 0.00 79 1007.3
20260509113945 20 43 0.0 1.6 0.00 0.00 0.00 80 1007.2
20260509113442 19 42 0.0 0.0 0.00 0.00 0.00 79 1007.3
20260509112939 19 42 0.0 1.6 0.00 0.00 0.00 79 1006.9
20260509112436 20 341 0.0 1.6 0.00 0.00 0.00 78 1006.9
20260509111933 20 51 0.0 1.6 0.00 0.00 0.00 78 1006.8
20260509111431 20 21 0.0 1.6 0.00 0.00 0.00 77 1006.7
20260509110928 20 345 0.0 1.6 0.00 0.00 0.00 77 1006.8
20260509110423 20 54 1.6 1.6 0.00 0.00 0.00 76 1006.6
20260509105922 20 334 0.0 1.6 0.00 0.00 0.00 76 1006.5
20260509105420 20 329 0.0 1.6 0.00 0.00 0.00 75 1006.5
20260509104917 20 348 0.0 3.2 0.00 0.00 0.00 74 1006.9
20260509104413 20 323 1.6 3.2 0.00 0.00 0.00 74 1006.7
20260509103911 20 312 1.6 3.2 0.00 0.00 0.00 75 1006.8
20260509103408 20 337 1.6 3.2 0.00 0.00 0.00 77 1006.8
20260509102907 20 321 1.6 4.8 0.00 0.00 0.00 79 1006.9
20260509102404 20 251 0.0 0.0 0.00 0.00 0.00 81 1006.9
20260509101859 20 225 0.0 1.6 0.00 0.00 0.00 81 1006.7
20260509101355 20 225 0.0 0.0 0.00 0.00 0.00 80 1006.6
20260509100854 20 266 0.0 1.6 0.00 0.00 0.00 80 1006.8
20260509100350 20 359 0.0 1.6 0.00 0.00 0.00 79 1006.6
20260509095847 20 44 0.0 0.0 0.00 0.00 0.00 79 1006.6
20260509095344 20 5 1.6 1.6 0.00 0.00 0.00 79 1006.5
20260509094841 20 331 0.0 1.6 0.00 0.00 0.00 79 1006.4
20260509094338 21 2 0.0 3.2 0.00 0.00 0.00 79 1006.5
20260509093836 21 321 3.2 4.8 0.00 0.00 0.00 81 1006.4
20260509093332 21 311 3.2 9.7 0.00 0.00 0.00 83 1006.5
20260509092831 21 301 1.6 3.2 0.00 0.00 0.00 88 1004.5
20260509092329 21 115 1.6 4.8 0.00 0.00 0.00 88 1003.4
20260509091826 21 95 1.6 4.8 0.00 0.00 0.00 88 1003.5
20260509091323 20 122 1.6 4.8 0.00 0.00 0.00 88 1003.4
20260509090820 20 128 1.6 6.4 0.00 0.00 0.00 88 1003.5
20260509090317 20 144 3.2 6.4 0.00 0.00 0.00 88 1003.9
20260509085815 20 216 0.0 6.4 0.00 0.00 0.00 88 1004.3
20260509085312 20 191 1.6 1.6 0.00 0.00 0.00 88 1004.2
20260509084809 20 199 0.0 3.2 0.00 0.00 0.00 88 1003.9
20260509084306 20 220 0.0 1.6 0.00 0.00 0.00 88 1004.5
20260509083803 20 257 1.6 3.2 0.00 0.00 0.00 88 1004.3
20260509083300 20 166 1.6 3.2 0.00 0.00 0.00 87 1004.7
20260509082756 20 345 1.6 4.8 0.00 0.00 0.00 87 1004.6
20260509082253 20 259 1.6 3.2 0.00 0.00 0.00 87 1004.8
20260509081750 20 164 0.0 3.2 0.00 0.00 0.00 88 1004.8
20260509081247 20 204 1.6 1.6 0.00 0.00 0.00 88 1005.2
20260509080745 20 179 3.2 3.2 0.00 0.00 0.00 89 1005.3
20260509080243 20 225 0.0 3.2 0.00 0.00 0.00 89 1005.6
20260509075741 20 164 0.0 1.6 0.00 0.00 0.00 88 1005.5
20260509075238 20 160 1.6 3.2 0.00 0.00 0.00 88 1005.7
20260509074735 20 122 1.6 3.2 0.00 0.00 0.00 88 1005.9
20260509074233 20 139 1.6 1.6 0.00 0.00 0.00 88 1005.8
20260509073728 20 100 1.6 4.8 0.00 0.00 0.00 88 1005.9
20260509073225 20 161 0.0 1.6 0.00 0.00 0.00 88 1007.0
20260509072722 20 127 0.0 1.6 0.00 0.00 0.00 88 1007.2
20260509072219 20 222 0.0 0.0 0.00 0.00 0.00 88 1007.7
20260509071715 20 201 0.0 1.6 0.00 0.00 0.00 87 1007.7
20260509071213 21 205 0.0 1.6 0.00 0.00 0.00 87 1007.9
20260509070709 21 228 0.0 4.8 0.00 0.00 0.00 86 1008.2
20260509070206 21 251 4.8 4.8 0.00 0.00 0.00 86 1008.5
20260509065702 21 202 3.2 9.7 0.00 0.00 0.00 87 1009.0
20260509065158 21 313 1.6 4.8 0.00 0.00 0.00 88 1009.4
20260509064655 21 329 0.0 1.6 0.00 0.00 0.00 88 1009.3
20260509064153 21 325 1.6 1.6 0.00 0.00 0.00 88 1009.1
20260509063650 21 58 0.0 1.6 0.00 0.00 0.00 88 1009.1
20260509063146 21 338 0.0 1.6 0.00 0.00 0.00 88 1008.9
20260509062643 21 293 0.0 1.6 0.00 0.00 0.00 88 1008.7
20260509062140 21 335 0.0 1.6 0.00 0.00 0.00 88 1008.8
20260509061637 21 285 1.6 1.6 0.00 0.00 0.00 88 1008.8
20260509061134 21 5 0.0 0.0 0.00 0.00 0.00 89 1008.8
20260509060632 20 2 0.0 1.6 0.00 0.00 0.00 89 1008.8
20260509060128 20 81 0.0 0.0 0.00 0.00 0.00 88 1008.6
20260509055624 20 82 0.0 0.0 0.00 0.00 0.00 88 1008.5
20260509055119 20 38 0.0 0.0 0.00 0.00 0.00 88 1008.7
20260509054617 20 53 0.0 3.2 0.00 0.00 0.00 88 1008.5
20260509054114 20 126 0.0 0.0 0.00 0.00 0.00 88 1008.6
20260509053613 20 126 0.0 0.0 0.00 0.00 0.00 88 1008.4
20260509053109 20 126 0.0 0.0 0.00 0.00 0.00 89 1008.4
20260509052607 20 126 0.0 1.6 0.00 0.00 0.00 89 1008.5
20260509052105 20 133 0.0 0.0 0.00 0.00 0.00 89 1008.3
20260509051602 20 134 0.0 0.0 0.00 0.00 0.00 89 1007.9
20260509051059 20 137 0.0 0.0 0.00 0.00 0.00 88 1007.7
20260509050556 20 147 0.0 0.0 0.00 0.00 0.00 88 1007.4
20260509050052 20 156 0.0 1.6 0.00 0.00 0.00 87 1007.4
20260509045550 21 119 0.0 0.0 0.00 0.13 0.13 86 1007.1
20260509045047 21 119 0.0 1.6 0.00 0.13 0.13 86 1007.2
20260509044544 21 121 0.0 1.6 0.00 0.13 0.13 86 1007.5
20260509044042 21 127 0.0 1.6 0.00 0.13 0.13 86 1007.7
20260509043538 21 104 0.0 1.6 0.00 0.13 0.13 85 1007.5
20260509043033 21 122 0.0 1.6 0.00 0.13 0.13 85 1007.8
20260509042530 21 96 0.0 1.6 0.00 0.13 0.13 85 1007.5
20260509042026 21 121 1.6 3.2 0.00 0.13 0.13 85 1007.6
20260509041523 21 130 0.0 0.0 0.00 0.13 0.13 85 1007.5
20260509041021 21 93 0.0 1.6 0.00 0.13 0.13 84 1007.6
20260509040519 21 112 1.6 1.6 0.00 0.13 0.13 84 1007.7
20260509040015 21 133 1.6 3.2 0.00 0.13 0.13 84 1007.4
20260509035512 21 94 0.0 4.8 0.00 0.13 0.13 84 1007.3
20260509035009 21 112 0.0 1.6 0.00 0.13 0.13 84 1007.2
20260509034508 22 69 0.0 1.6 0.00 0.13 0.13 83 1007.0
20260509034004 22 180 1.6 3.2 0.00 0.13 0.13 83 1007.1
20260509033501 22 196 3.2 3.2 0.00 0.13 0.13 83 1006.9
20260509032957 22 92 6.4 6.4 0.00 0.13 0.13 83 1006.6
20260509032455 22 160 3.2 6.4 0.00 0.13 0.13 82 1006.4
20260509031952 22 202 3.2 4.8 0.00 0.13 0.13 82 1006.4
20260509031449 22 133 3.2 3.2 0.00 0.13 0.13 82 1006.4
20260509030947 22 122 1.6 3.2 0.00 0.13 0.13 82 1006.4
20260509030445 22 126 1.6 3.2 0.00 0.13 0.13 81 1006.4
20260509025941 22 134 1.6 3.2 0.00 0.13 0.13 81 1006.2
20260509025437 22 136 1.6 3.2 0.00 0.13 0.13 81 1006.0
20260509024932 22 92 1.6 9.7 0.00 0.13 0.13 81 1005.8
20260509024429 22 58 1.6 4.8 0.00 0.13 0.13 81 1005.6
20260509023925 22 100 1.6 4.8 0.00 0.13 0.13 80 1005.3
20260509023423 22 144 1.6 4.8 0.00 0.13 0.13 80 1005.5
20260509022919 22 218 1.6 6.4 0.00 0.13 0.13 80 1005.7
20260509022417 22 163 0.0 3.2 0.00 0.13 0.13 80 1005.7
20260509021914 22 304 0.0 1.6 0.00 0.13 0.13 79 1005.7
20260509021411 22 136 1.6 3.2 0.00 0.13 0.13 79 1005.7
20260509020908 22 80 4.8 4.8 0.00 0.13 0.13 78 1005.7
20260509020407 22 142 1.6 6.4 0.00 0.13 0.13 78 1005.9
20260509015903 22 126 0.0 3.2 0.00 0.13 0.13 78 1006.1
20260509015402 22 104 1.6 4.8 0.00 0.13 0.13 78 1005.9
20260509014858 22 118 1.6 3.2 0.00 0.13 0.13 78 1005.8
20260509014355 22 114 0.0 1.6 0.00 0.13 0.13 78 1006.0
20260509013851 22 133 0.0 1.6 0.00 0.13 0.13 78 1005.9
20260509013348 22 132 0.0 0.0 0.00 0.13 0.13 78 1006.1
20260509012844 22 152 0.0 1.6 0.00 0.13 0.13 78 1006.0
20260509012340 22 112 0.0 0.0 0.00 0.13 0.13 77 1005.9
20260509011838 22 91 0.0 1.6 0.00 0.13 0.13 77 1005.9
20260509011335 22 111 0.0 1.6 0.00 0.13 0.13 77 1006.0
20260509010833 22 158 0.0 1.6 0.00 0.13 0.13 77 1005.5
20260509010330 23 83 1.6 3.2 0.00 0.13 0.13 76 1005.5
20260509005827 23 107 1.6 3.2 0.00 0.13 0.13 76 1005.5
20260509005325 23 87 3.2 3.2 0.00 0.13 0.13 76 1005.6
20260509004825 23 153 0.0 1.6 0.00 0.13 0.13 76 1005.2
20260509004322 23 117 0.0 1.6 0.00 0.13 0.13 76 1005.1
20260509003820 23 148 0.0 1.6 0.00 0.13 0.13 75 1005.3
20260509003318 23 142 1.6 1.6 0.00 0.13 0.13 75 1005.0
20260509002815 23 231 1.6 1.6 0.00 0.13 0.13 75 1005.1
20260509002312 23 248 1.6 3.2 0.00 0.13 0.13 75 1005.2
20260509001810 23 252 0.0 1.6 0.00 0.13 0.13 75 1005.6
20260509001305 23 122 0.0 1.6 0.00 0.13 0.13 74 1005.6
20260509000804 23 234 0.0 1.6 0.00 0.13 0.13 74 1005.6
20260509000303 23 122 0.0 1.6 0.00 0.13 0.13 74 1005.6
20260508235757 23 128 0.0 1.6 0.00 0.13 0.13 73 1005.8
20260508235254 23 156 0.0 1.6 0.00 0.13 0.13 73 1005.8
20260508234751 23 266 0.0 3.2 0.00 0.13 0.13 73 1005.7
20260508234247 23 175 0.0 1.6 0.00 0.13 0.13 73 1005.7
20260508233747 23 123 0.0 1.6 0.00 0.13 0.13 72 1005.8
20260508233245 23 92 1.6 3.2 0.00 0.13 0.13 72 1005.7
20260508232742 23 198 1.6 3.2 0.00 0.13 0.13 71 1005.9
20260508232238 23 233 1.6 1.6 0.00 0.13 0.13 72 1005.7
20260508231736 23 159 0.0 3.2 0.00 0.13 0.13 72 1005.8
20260508231232 23 194 1.6 3.2 0.00 0.13 0.13 72 1005.6
20260508230730 23 163 0.0 4.8 0.00 0.13 0.13 72 1005.8
20260508230225 23 235 1.6 6.4 0.00 0.13 0.13 71 1005.8
20260508225724 23 132 0.0 4.8 0.00 0.13 0.13 71 1006.0
20260508225220 23 111 3.2 6.4 0.00 0.13 0.13 70 1005.8
20260508224718 23 256 1.6 4.8 0.00 0.13 0.13 71 1005.9
20260508224215 24 81 4.8 9.7 0.00 0.13 0.13 69 1005.8
20260508223713 24 84 1.6 11.3 0.00 0.13 0.13 70 1005.5
20260508223210 23 133 1.6 4.8 0.00 0.13 0.13 70 1005.7
20260508222707 23 142 4.8 4.8 0.00 0.13 0.13 69 1005.7
20260508222204 23 181 3.2 4.8 0.00 0.13 0.13 70 1005.7
20260508221700 23 251 3.2 6.4 0.00 0.13 0.13 70 1005.6
20260508221156 23 156 3.2 6.4 0.00 0.13 0.13 69 1005.7
20260508220653 23 272 1.6 11.3 0.00 0.13 0.13 69 1006.0
20260508220149 23 151 4.8 6.4 0.00 0.13 0.13 70 1005.8
20260508215646 23 165 3.2 4.8 0.00 0.13 0.13 69 1006.1
20260508215143 23 177 3.2 6.4 0.00 0.13 0.13 68 1006.2
20260508214640 23 197 1.6 9.7 0.00 0.13 0.13 68 1006.1
20260508214137 23 310 3.2 4.8 0.00 0.13 0.13 69 1006.3
20260508213634 23 120 3.2 6.4 0.00 0.13 0.13 69 1006.3